Regional Weather Roundup
Issued by NWS Albany, NY

Home | Current Version | Previous Version | Text Only | Print | Product List | Glossary On
Versions: 1 2 3 4 5 6 7 8 9 10 11 12 13 14 15 16 17 18 19 20 21 22 23 24 25 26 27 28 29 30 31 32 33 34 35 36 37 38 39 40 41 42 43 44 45 46 47 48 49 50
000
ASUS41 KALY 092310
RWRALY

NEW YORK STATE HOURLY WEATHER ROUNDUP
NATIONAL WEATHER SERVICE ALBANY NY
600 PM EST TUE FEB 09 2016

NOTE: "FAIR" INDICATES FEW OR NO CLOUDS BELOW 12,000 FEET WITH NO
SIGNIFICANT WEATHER AND/OR NO OBSTRUCTIONS TO VISIBILITY.

NYZ032-033-038>043-046>054-057>066-NYZ062>081-100000-
EAST


CITY           SKY/WX    TMP DP  RH WIND       PRES   REMARKS
ALBANY         LGT SNOW  29  23  78 SW3       29.59R
GLENS FALLS    CLOUDY    27  18  69 CALM      29.58R
POUGHKEEPSIE   MOCLDY    32  21  64 CALM      29.58R
NEWBURGH       MOCLDY    30  25  80 CALM      29.57R
MONTGOMERY     CLOUDY    31  23  72 CALM      29.56R
WHITE PLAINS   PTCLDY    29  21  72 CALM      29.57R
ISLIP          MOCLDY    29  20  69 N3        29.59R
NEW YORK CITY  MOCLDY    34  23  64 E7        29.60R WCI  28
CENTRAL PARK   PTCLDY    33  23  66 NE5       29.61R WCI  29
$$

NYZ005>009-017-018-044>046-055-056-100000-
CENTRAL


CITY           SKY/WX    TMP DP  RH WIND       PRES   REMARKS
FULTON         LGT SNOW  32  27  81 SE3       29.54R
SYRACUSE       LGT SNOW  28  27  96 E5        29.53S FOG     WCI  23
ROME           LGT SNOW  28  23  81 E8        29.56R WCI  20
ELMIRA         LGT SNOW  33  33 100 CALM      29.51R VSB 1
BINGHAMTON     CLOUDY    32  26  78 S3        29.48R
MONTICELLO     MOCLDY    28  25  86 CALM      29.53R
$$

NYZ026>034-041>043-100000-
NORTH


CITY           SKY/WX    TMP DP  RH WIND       PRES   REMARKS
WATERTOWN      LGT SNOW  26  23  88 NE7       29.54S FOG     WCI  18
FORT DRUM      NOT AVBL
MASSENA        CLOUDY    22  16  78 NE10      29.61R WCI  11
SARANAC LAKE   LGT SNOW  22  18  85 NE7       29.46R FOG     WCI  13
PLATTSBURGH    CLOUDY    24  19  81 N8        29.59R WCI  15
$$

NYZ001>004-010>016-019>021-100000-
WEST


CITY           SKY/WX    TMP DP  RH WIND       PRES   REMARKS
NIAGARA FALLS  FLURRIES  34  29  82 SW10      29.52R WCI  26
BUFFALO        CLOUDY    33  28  81 SW16G25   29.53R WCI  23
DUNKIRK        LGT SNOW  32  27  81 SW12G24   29.56R WCI  23
JAMESTOWN      CLOUDY    28  23  80 W13       29.51R WCI  18
WELLSVILLE     CLOUDY    32  22  66 W8        29.49R WCI  25
ROCHESTER      MOCLDY    36  26  67 W10       29.52R WCI  28
PENN YAN       CLOUDY    33  31  92 CALM      29.51R
$$

             KEY
       WCI = WIND CHILL INDEX
       VSB = VISIBILITY
       HX  = HEAT INDEX
$$




USA.gov is the U.S. government's official web portal to all federal, state and local government web resources and services.